sat.trackr.live / text

‹ back to catalog

STARLINK-32212

NORAD 60256 · 2024-131B

PAYLOAD ACTIVE UNKNOWN

§ Identity

Operator
Country
US
Launch date
2024-07-27
Launch site
AFETR
Launch vehicle
Mass (kg)
RCS (m²)

Purposes: comms

External: N2YO · Heavens-Above · Gunter

§ Orbital elements

Epoch: 2026-05-25T03:58:09.641568Z

Period
94.11 min
Inclination
53.1602°
Eccentricity
0.0001209
Mean motion
15.30196284 rev/d
Perigee alt
474.4 km
Apogee alt
476.1 km
Semi-major
6,853.4 km
B*
6.1503e-5
RAAN
57.4858°
Arg perigee
84.1776°
Mean anomaly
275.9363°
Rev number
10,342

§ Raw data

STARLINK-322121 60256U 24131B   26145.16538937  .00001463  00000+0  61503-4 0  99922 60256  53.1602  57.4858 0001209  84.1776 275.9363 15.30196284103424

JSON: /api/v1/satellites/60256 · /tle

For live sub-satellite position, see the globe view (requires WebGL).

§ Visibility from observer

Set your observer location to see the next 7 days of passes ≥ 10°. The values pass through the URL so the page stays shareable.

No JS? Fill the form by hand. The geolocation button needs JavaScript.